Location: Anjeux
(47.8815°N, 6.2076°E)
Time: 11:11:45
(UTC+00:00)

AO-27 - Pass Details

Date: 10 December 2021
Orbit: 784 x 798 km, 98.9° (Epoch: 24 January)

Event Time Altitude Azimuth Distance (km) Brightness Sun altitude
Rises 18:15:12 0° 173° (S) 3,287 10.9 -24.5°
Reaches altitude 10° 18:17:33 10° 176° (S) 2,363 10.2 -24.9°
Maximum altitude 18:22:43 63° 258° (WSW) 890 8.1 -25.8°
Drops below altitude 10° 18:27:57 10° 339° (NNW) 2,382 10.3 -26.7°
Sets 18:30:19 0° 343° (NNW) 3,316 11.0 -27.1°
